Find KSM1-b

NORAD ID: 46914 Int'l Des: 2020-081 Owner: KLEOS Country: L operational
LEOCIRCULAR

Live Position

Loading 3D Globe...

About KSM1-b

Description loading...

Upcoming Passes

Passes for default location (London). Set your location on the main map for personalized predictions.

Altitude History

Loading altitude history...

Two-Line Element Set

1 46914U 20081K 26105.01027148 .00004531 00000-0 18866-3 0 9997
2 46914 36.9005 96.9519 0003558 111.2666 248.8462 15.23638719302545
Epoch: Apr 15, 2026 • Age: 9 hours

Current Status

Altitude 495.0 km
Velocity 7.62 km/s
Sub-Earth Point -8.23°S, 52.1°W
Launch Date Nov 7, 2020
Age 5.4 years
Type other

Technical Details

Classification Payload
Mass 10.00 kg
Dry Mass 10.00 kg
Total Mass 10.00 kg
Length 0.30 m
Diameter 0.20 m
Span 0.30 m
Shape Box
Manufacturer GOMSP
Bus Type Cubesat 6U
Phase Status In Orbit
Owner/State KLEOS/L

Most Searched